Hourly Data Report for June 27, 2021

MANIWAKI AIRPORT
QUEBEC
Current Station Operator: ECCC - MSC

46°16'29.000" N
75°59'31.000" W
199.70 m
7034482
71721
WMJ

Download Data

Hourly Data (June 2021)
Hourly Data Report for June 27, 2021
TIME
LST
Temp Definition
°C
Dew Point Definition
°C
Rel Hum Definition
%
Precip. Amount Definition
mm

Wind Dir Definition
10's deg

Wind Spd Definition
km/h
Visibility Definition
km
Stn Press Definition
kPa
Hmdx Definition


Wind Chill Definition


Weather Definition


00:00 19.5 19.3 99 2.2   0   98.84     LegendNANA
01:00 19.5 19.3 99 1.1 13 2   98.79     LegendNANA
02:00 20.2 20.0 99 3.6 17 6   98.71 28   LegendNANA
03:00 21.0 20.5 97 0.2 18 10   98.62 29   LegendNANA
04:00 21.4 20.4 94 0.0 20 15   98.62 29   LegendNANA
05:00 21.3 20.2 93 0.1 19 15   98.62 29   LegendNANA
06:00 21.3 20.1 93 0.1 20 18   98.63 29   LegendNANA
07:00 22.0 20.2 89 0.0 19 18   98.61 30   LegendNANA
08:00 22.6 20.2 86 0.0 21 19   98.63 30   LegendNANA
09:00 23.5 20.4 83 0.0 21 22   98.64 31   LegendNANA
10:00 25.7 21.2 76 0.0 22 23   98.68 34   LegendNANA
11:00 25.7 21.3 77 0.0 21 18   98.72 34   LegendNANA
12:00 26.9 21.4 72 0.0 22 22   98.74 36   LegendNANA
13:00 27.1 20.9 69 0.0 22 24   98.74 35   LegendNANA
14:00 28.9 21.5 64 0.0 22 23   98.72 38   LegendNANA
15:00 29.6 21.0 60 0.0 22 26   98.68 38   LegendNANA
16:00 29.5 21.6 63 0.0 21 27   98.69 38   LegendNANA
17:00 28.3 20.6 63 0.0 22 24   98.73 36   LegendNANA
18:00 28.2 20.8 64 0.0 23 19   98.77 36   LegendNANA
19:00 23.9 21.7 88 1.9 23 17   98.84 33   LegendNANA
20:00 23.3 22.0 92 0.3 29 12   98.94 33   LegendNANA
21:00 22.3 20.2 88 0.4 30 10   99.00 30   LegendNANA
22:00 21.9 20.2 91 0.0 26 6   99.05 30   LegendNANA
23:00 20.4 19.8 97 0.0 22 4   99.09 28   LegendNANA

Notes on Data Quality.

Legend

  • E = Estimated
  • M = Missing
  • NA = Not Available*
  • [empty] = Indicates an unobserved value
Date modified: